Location: Trois-Rivi�res
(46.3500°N, 72.5500°W)
Time: 14:49:58
(UTC-04:00)

Tiangong 1 - Pass Details

Date: 10 October 2017
Orbit: 292 x 319 km, 42.8° (Epoch: 23 October)

Event Time Altitude Azimuth Distance (km) Brightness Sun altitude
Rises 19:20:25 0° 259° (W) 2,043 6.5 -12.5°
Reaches altitude 10° 19:22:28 10° 251° (WSW) 1,207 4.7 -12.9°
Maximum altitude 19:25:00 37° 181° (S) 502 1.6 -13.3°
Enters shadow 19:25:58 26° 134° (SE) 651 1.8 -13.5°
